User: anonymous   Login
Location: Aragüita
(10.0436°N, 67.8028°W)
Time: 02:13:09
(UTC+00:00)
Language:

CRYOSAT 2 - Orbit

View from above orbital plane
View from above orbital plane
View from above satellite
View from above satellite

Ground track
Ground track

The orbit data is extracted from the following two-line orbital elements,

1 36508U 10013A   24167.56463630  .00000412  00000-0  10156-3 0  9993
2 36508  92.0345 100.6309 0000982 358.3194   1.8010 14.51895147751927
Epoch (UTC): 15 June 2024 13:33:04
Eccentricity: 0.0000982
inclination: 92.0345°
perigee height: 719 km
apogee height: 720 km
right ascension of ascending node: 100.6309°
argument of perigee: 358.3194°
revolutions per day: 14.51895147
mean anomaly at epoch: 1.8010°
orbit number at epoch: 75192

The dashed part of the orbit path shows where the satellite is in the earth's shadow,  

DLR